Wind_Speed
5 6 6 7 8 10 10 10 11 12 13 13 13 11 11 10 6 2 5 9 8 7 8 8 9 9 9 8 9 8 7 4 2 4 6 7 8 8 8 12 15 15 13 10 8 4 1 1 3 4 7 10 13 17 18 17 18 22 26 27 26 26 25
6 6 5 6 9 10 9 9 10 12 14 14 12 11 11 11 8 3 4 8 9 8 8 8 9 8 8 8 8 8 8 5 4 3 5 7 8 9 8 9 10 12 12 12 13 10 5 3 3 3 4 6 9 14 18 18 18 20 23 25 26 27 26
7 7 5 6 9 9 9 9 10 11 14 14 12 11 10 10 10 8 6 9 9 7 7 8 9 8 7 6 7 7 7 6 4 3 4 5 7 8 8 9 9 10 9 8 10 12 9 6 5 5 5 5 5 9 13 16 20 21 22 23 24 25 26
9 8 5 6 9 8 8 10 10 11 12 13 12 11 10 9 9 9 9 9 9 7 7 9 10 8 7 6 7 8 7 6 5 5 4 5 7 9 8 10 11 12 11 9 9 11 10 7 5 5 6 8 9 11 12 13 16 19 22 24 25 25 25
9 9 6 5 7 7 8 9 10 11 12 13 13 12 10 8 8 9 9 10 10 8 8 9 9 8 7 8 9 9 9 7 5 5 5 6 7 9 10 11 12 14 15 15 14 13 12 11 9 5 5 8 9 12 15 14 15 16 19 22 26 28 28
9 9 7 5 5 6 7 9 9 10 12 15 14 12 9 7 7 9 9 9 10 9 8 10 10 7 6 8 10 10 10 9 6 6 6 6 7 8 10 11 13 14 16 17 17 16 16 15 12 6 6 8 7 8 11 13 14 15 16 19 23 26 29
8 8 5 3 3 4 7 8 8 9 12 14 13 10 7 6 8 9 9 9 9 8 8 9 10 6 4 6 9 10 11 9 7 7 7 7 8 8 8 11 13 15 17 17 18 18 18 16 12 8 6 7 8 9 9 11 12 12 13 17 19 22 26
7 6 2 1 2 4 6 7 7 8 11 13 10 7 6 7 10 10 9 9 8 8 7 8 9 6 3 5 8 10 10 10 10 9 8 8 9 9 9 10 12 15 17 17 18 18 19 19 17 14 10 5 6 6 6 9 11 13 16 16 15 17 21
6 5 3 1 2 4 5 5 6 7 10 11 7 6 8 9 10 9 8 8 8 8 8 9 8 6 5 6 7 8 9 9 11 11 10 10 11 11 11 11 12 14 16 16 17 17 18 20 19 19 16 10 6 4 3 5 6 11 17 17 15 15 16
6 5 3 2 3 4 4 4 6 7 9 9 5 5 9 9 8 8 9 9 9 9 9 8 8 6 6 7 6 7 9 9 10 11 12 12 12 12 12 12 12 13 14 14 16 17 17 20 20 20 19 17 13 6 3 3 4 6 10 13 14 14 14
7 5 4 2 3 4 4 4 5 6 8 7 4 6 8 7 6 8 10 10 9 9 9 9 8 6 7 7 7 7 8 9 10 11 11 12 13 13 12 12 13 13 14 13 15 16 17 19 20 20 20 20 19 13 7 4 5 8 10 11 13 12 13
9 6 4 3 3 4 4 5 4 4 7 6 4 6 6 4 6 9 10 10 9 9 9 9 9 8 7 7 8 8 9 10 11 11 11 12 12 13 12 14 15 14 12 12 14 14 15 16 18 19 19 19 20 20 16 8 5 9 12 12 12 13 13
10 7 5 4 4 4 4 5 4 4 5 4 3 4 4 4 7 9 10 10 9 9 9 9 9 9 9 10 10 11 11 12 12 13 13 12 12 13 14 16 16 14 12 12 13 14 14 15 16 18 19 19 19 20 21 16 7 8 15 15 12 12 13
11 8 6 5 5 4 4 6 5 3 4 3 2 3 3 4 7 9 9 9 9 9 8 8 10 11 12 12 12 12 13 14 14 15 15 15 14 15 15 15 16 15 13 12 12 13 14 14 15 16 17 18 20 21 21 20 12 9 14 18 17 14 13
12 9 8 7 5 4 5 6 4 4 4 3 2 2 3 5 7 8 9 8 8 8 8 8 10 11 13 12 12 13 15 16 17 17 17 17 17 17 17 15 15 15 15 14 13 12 13 13 14 16 17 18 20 21 21 20 16 11 12 16 18 19 17
12 10 9 9 7 5 5 5 3 3 4 4 3 2 3 4 6 7 7 6 7 8 8 8 10 11 12 12 13 14 16 17 18 19 19 19 17 17 18 17 16 16 17 16 14 12 13 13 13 15 17 18 19 20 20 20 19 16 13 15 18 19 19
13 11 11 10 8 5 4 3 2 3 5 5 3 2 3 3 5 6 5 5 7 8 8 8 9 10 11 12 13 14 16 17 18 18 18 18 17 17 17 18 17 17 17 17 16 14 13 12 12 14 15 17 18 20 20 19 20 19 16 15 17 19 19
13 12 12 11 8 5 3 3 3 5 7 6 3 2 3 3 5 6 6 6 6 7 8 8 9 10 10 11 12 13 16 17 17 17 16 16 16 16 17 18 18 17 16 17 16 15 14 13 12 13 14 15 16 18 19 19 21 22 19 16 15 17 18
13 12 13 12 8 6 3 3 3 5 6 5 3 2 2 3 5 6 7 8 7 6 7 9 10 11 10 11 12 14 17 18 17 17 16 14 14 15 16 17 18 17 16 15 16 16 14 13 13 13 14 14 14 16 18 19 19 20 20 17 15 15 16
14 13 13 12 9 7 5 4 4 4 4 4 4 2 3 4 5 5 7 8 7 7 7 8 10 11 11 12 13 15 19 19 17 17 17 14 12 13 15 16 17 17 14 14 16 16 14 15 15 15 14 14 15 15 15 16 17 16 16 17 16 16 15
14 13 13 12 10 8 7 7 7 5 3 4 6 5 5 5 4 5 6 6 7 8 9 9 9 10 11 12 13 16 19 20 18 19 18 14 11 11 13 14 15 14 13 13 15 14 13 13 14 14 13 12 13 14 14 14 15 14 14 15 16 16 15
14 13 12 12 11 9 9 10 9 5 3 5 6 6 5 5 5 5 5 6 7 8 9 10 9 10 11 12 13 17 20 20 19 20 19 14 10 10 11 12 12 11 12 13 13 13 12 11 11 12 11 11 11 12 12 13 14 14 14 13 13 13 13
13 12 11 11 10 10 10 11 9 5 3 5 5 5 5 5 6 6 6 7 7 7 9 10 10 10 11 12 14 17 20 21 19 20 18 14 10 9 9 11 11 11 13 13 13 13 12 10 9 10 9 10 11 11 11 11 11 11 11 10 10 11 10
10 10 10 10 10 10 10 11 8 5 5 6 6 6 7 7 7 7 7 8 7 7 9 10 10 11 11 13 15 17 20 21 19 19 17 13 11 10 9 10 11 12 13 13 13 13 12 10 10 9 6 5 7 8 9 8 7 8 8 7 7 8 8
8 9 8 9 9 9 9 10 9 7 7 6 6 7 7 7 8 8 7 8 8 8 9 11 10 10 11 13 15 17 20 20 19 19 16 12 11 10 9 10 12 12 12 12 13 13 10 9 10 9 7 6 5 5 7 7 7 7 8 8 8 8 9
8 7 7 7 8 8 9 10 9 8 6 5 6 8 9 9 10 9 8 8 8 8 9 10 9 9 11 13 14 16 19 19 18 18 15 12 10 7 7 10 13 12 11 11 12 11 9 7 8 8 7 8 7 6 7 7 7 7 7 7 8 8 8
8 7 8 8 9 9 9 9 8 6 4 4 6 8 11 12 11 11 10 10 10 9 10 10 9 9 12 13 14 16 19 18 16 15 13 10 7 5 6 9 12 12 11 10 10 8 6 5 5 6 5 5 6 6 6 6 6 6 6 5 5 6 6
8 8 9 10 10 10 9 8 7 6 5 5 6 7 10 11 11 11 12 11 10 10 10 11 10 10 11 13 14 16 18 18 15 14 11 8 5 5 7 8 10 11 10 10 9 5 4 4 5 5 4 2 1 2 3 5 5 4 4 4 5 5 5
10 9 10 11 11 9 9 8 7 7 7 8 8 8 10 12 11 11 12 11 11 11 11 11 11 10 12 13 14 16 18 17 14 13 11 7 5 7 7 8 9 10 9 9 8 4 5 8 8 6 6 3 1 1 2 3 4 3 2 3 4 4 3
12 11 11 12 12 10 9 8 7 7 7 9 10 10 11 11 11 12 13 13 12 12 12 11 11 11 12 14 15 16 17 15 12 11 11 8 7 8 9 8 9 10 8 7 7 5 5 10 10 8 7 5 3 3 4 5 4 4 3 3 3 2 1
13 12 12 12 12 10 8 7 7 7 8 9 10 11 12 11 11 12 14 14 15 15 13 11 11 12 14 14 15 16 17 14 11 11 10 8 6 7 9 9 9 11 10 6 5 6 6 9 12 11 9 7 6 5 6 6 5 4 4 3 2 2 1
13 13 13 13 12 11 9 8 7 7 8 8 9 10 11 12 11 11 12 14 15 15 14 12 12 13 14 14 15 16 15 13 11 10 9 7 5 7 9 9 11 12 11 7 5 6 7 11 14 12 10 9 8 7 7 8 7 6 6 6 5 4 3
13 13 14 14 13 12 10 9 7 7 8 8 8 8 9 11 12 12 13 14 14 14 14 14 14 14 13 13 15 16 14 12 11 9 8 6 6 8 9 9 10 11 11 9 7 7 8 13 14 12 10 10 9 9 9 8 7 7 7 7 6 6 6
14 14 15 14 13 12 11 10 9 9 10 9 9 9 11 12 14 16 16 15 13 13 15 16 15 13 12 12 14 14 12 10 9 8 7 6 6 8 8 8 9 11 12 10 8 7 9 13 15 12 10 10 9 9 9 8 7 7 7 7 7 7 7
14 15 15 15 14 13 12 11 11 10 9 10 11 12 13 15 17 18 17 15 14 14 15 16 15 12 11 11 12 11 8 7 6 5 4 5 6 8 9 10 11 12 12 11 9 8 7 11 16 14 11 10 9 9 9 8 8 8 7 7 7 7 7
15 16 16 16 15 14 13 12 10 9 9 10 12 14 15 16 18 20 19 17 15 14 14 15 14 11 9 9 9 8 7 7 6 6 5 6 7 9 11 12 13 14 13 11 9 8 7 8 14 14 11 11 12 11 10 10 9 8 7 8 8 8 8
16 17 17 16 15 14 14 13 11 9 9 11 13 16 17 19 21 22 20 16 13 12 13 14 12 9 9 8 7 7 8 8 7 7 7 9 10 11 12 12 13 13 11 9 8 7 5 5 10 11 11 13 14 13 12 10 8 7 8 8 8 10 11
Wind_Direction
317 334 355 4 2 2 4 6 13 18 20 23 21 19 28 37 43 24 16 27 31 40 51 46 37 31 32 43 44 36 33 29 352 298 287 273 261 261 256 241 239 247 254 253 250 243 199 276 276 240 226 223 220 221 221 220 219 220 224 226 228 231 233
309 310 335 356 356 356 1 7 16 20 18 18 19 18 28 40 47 45 6 15 25 35 42 34 22 19 30 43 40 31 29 28 14 323 291 282 270 267 267 258 251 256 257 253 251 248 230 225 271 280 246 238 232 230 227 225 224 222 223 226 228 231 233
312 303 318 349 357 1 12 20 22 20 15 14 18 18 22 37 47 49 25 15 21 26 28 21 11 10 22 33 25 16 20 25 19 350 308 292 289 284 273 263 260 258 254 249 242 238 233 226 237 258 259 252 250 247 237 230 231 229 225 225 226 228 231
310 302 308 344 359 9 19 26 24 19 13 10 9 9 15 32 43 45 38 28 26 24 19 14 13 17 21 17 8 4 7 13 17 4 337 311 301 296 283 265 258 256 250 244 234 226 223 220 227 249 256 254 260 263 261 250 241 237 233 231 229 228 228
307 301 301 331 357 8 12 22 24 17 9 3 359 360 11 28 34 37 39 31 28 26 17 9 6 11 17 12 2 358 359 359 2 2 348 334 313 299 292 279 268 263 255 250 247 237 230 227 226 233 245 249 257 260 262 263 256 248 241 238 237 235 233
309 306 298 308 349 7 7 14 18 14 3 356 355 355 3 22 29 29 27 26 26 19 12 9 1 351 354 3 359 353 354 352 348 350 345 340 326 308 301 292 280 270 263 260 258 252 246 238 227 226 237 237 248 265 269 265 260 257 250 243 240 239 238
310 313 296 290 334 6 11 11 6 4 358 352 352 354 2 20 20 14 14 22 25 11 2 3 2 353 328 348 355 350 353 352 346 343 339 339 336 327 313 299 287 278 273 271 266 259 253 243 229 224 232 235 245 260 270 265 259 258 256 251 246 240 239
303 309 295 273 324 3 11 7 355 350 351 352 357 4 12 9 4 10 21 27 24 10 1 357 2 10 356 352 352 349 354 355 350 347 341 340 341 336 325 309 293 283 279 276 271 265 257 249 243 238 230 227 245 247 254 259 254 251 253 257 256 246 238
287 292 281 293 345 357 355 355 351 345 347 352 359 11 13 8 9 21 25 14 4 357 354 354 4 24 20 2 353 348 349 346 346 347 344 341 341 337 331 320 303 287 283 281 276 271 264 258 254 248 238 229 234 237 237 250 250 252 254 252 252 253 243
266 281 272 282 341 345 331 337 344 340 346 349 350 4 9 16 26 23 7 357 352 347 344 347 2 28 25 7 356 351 346 341 341 344 345 344 343 339 331 324 313 294 286 285 280 275 270 263 258 254 246 237 234 232 232 245 238 243 251 245 244 252 248
248 263 262 263 325 337 323 333 336 331 341 342 337 358 9 21 19 1 352 351 347 343 341 343 351 10 22 11 356 348 345 341 338 340 344 344 347 348 335 326 321 304 290 285 281 277 271 265 260 257 253 246 240 234 227 240 246 242 248 250 245 248 250
239 252 261 256 307 327 323 334 328 320 338 338 336 358 13 24 2 345 343 342 336 335 338 343 347 353 8 11 359 347 341 337 334 334 337 339 347 354 343 332 328 315 299 287 282 280 274 268 264 259 256 250 242 239 237 234 241 244 243 247 249 247 249
233 248 257 252 290 311 315 323 311 304 335 331 329 360 16 11 351 341 341 340 333 334 339 347 352 352 357 0 355 348 342 336 331 330 331 333 342 350 341 336 334 327 316 298 283 279 276 274 270 262 257 253 249 248 245 239 240 249 244 246 255 253 249
230 240 244 246 274 291 306 317 301 293 323 309 301 352 356 347 346 341 343 347 345 346 349 354 355 352 351 352 350 348 346 342 336 331 328 326 332 340 338 335 335 334 328 312 291 280 277 278 275 265 257 254 251 248 244 239 237 251 252 249 250 251 248
229 235 238 243 258 273 302 313 290 281 307 295 288 325 323 331 342 339 340 346 348 347 348 348 348 345 344 347 350 349 346 343 338 333 328 324 325 331 333 331 330 334 334 322 302 287 283 284 281 270 261 255 251 247 244 243 242 247 255 251 246 248 247
228 236 237 240 250 266 297 305 278 271 300 296 294 315 306 317 337 338 336 342 343 338 335 336 335 333 334 339 345 347 345 340 335 328 322 320 319 323 328 327 325 330 334 326 311 295 286 285 278 269 262 257 254 251 248 245 243 242 248 250 248 249 248
227 236 236 236 245 261 286 298 274 271 294 292 288 307 293 302 338 338 326 330 337 333 328 326 325 323 327 333 338 342 342 338 333 325 316 311 312 316 320 322 323 327 329 326 316 302 292 286 275 265 261 258 256 255 252 247 244 242 243 246 246 248 250
227 236 234 233 239 245 266 313 299 284 293 287 274 295 286 297 334 337 326 315 314 323 325 322 319 320 324 330 333 336 337 334 330 325 317 307 305 308 312 316 318 323 326 322 315 307 299 290 277 267 263 261 259 258 255 251 247 243 240 241 242 245 248
232 241 234 231 233 235 257 315 300 285 292 280 264 302 309 313 323 328 332 320 303 311 320 314 314 318 322 326 329 334 336 333 329 325 319 309 302 300 304 310 316 320 320 313 308 304 296 291 285 274 265 262 261 259 255 250 245 240 237 240 243 244 245
242 247 234 228 231 241 262 279 263 268 295 273 246 256 291 310 314 319 331 327 315 315 315 310 311 313 318 322 326 334 337 335 333 330 324 315 303 297 300 308 316 320 317 309 303 296 289 290 290 281 271 266 259 252 246 241 238 236 234 237 242 242 243
250 248 232 229 235 249 262 256 243 249 283 259 243 249 265 278 290 300 314 319 319 318 313 312 312 311 315 319 324 333 337 336 337 337 332 322 308 302 305 312 318 319 317 311 303 292 285 292 295 283 272 267 259 247 238 235 234 235 233 233 239 242 243
250 244 233 234 241 253 258 244 234 240 265 251 250 259 263 265 278 287 295 304 312 315 313 315 317 312 311 315 322 332 336 338 340 339 335 329 321 316 316 318 320 321 319 312 301 290 283 286 293 286 268 257 253 241 233 235 234 234 234 230 232 236 236
254 245 233 236 245 253 249 233 225 233 246 242 249 258 256 260 274 284 294 302 309 315 313 315 317 311 307 313 323 331 335 338 341 341 337 336 336 335 329 325 326 327 322 313 301 294 290 285 287 290 279 257 243 229 222 228 232 231 229 225 223 223 223
248 235 228 236 245 244 232 220 216 220 221 230 252 265 268 272 278 282 290 297 306 312 310 311 314 309 306 313 321 329 334 336 339 340 338 338 341 342 337 329 327 329 326 318 305 299 298 292 282 283 287 262 239 225 211 207 209 208 207 202 204 210 218
225 218 224 232 232 223 209 202 204 212 224 248 277 284 285 287 289 290 289 290 295 301 302 307 310 305 307 315 319 327 335 337 338 337 335 336 337 336 334 325 321 324 325 319 312 309 307 293 277 269 259 244 236 216 193 188 186 186 186 183 188 203 220
218 223 234 232 221 209 200 200 207 220 238 277 307 304 297 298 302 302 298 292 291 295 303 308 308 304 310 316 317 325 334 338 337 334 332 335 336 335 329 318 316 319 320 318 319 320 313 289 276 271 249 230 229 218 202 199 197 194 198 200 206 216 228
225 239 245 235 223 213 208 212 223 236 256 304 324 312 300 298 301 302 299 294 292 295 303 306 304 304 310 312 313 323 332 335 334 331 330 332 336 330 311 305 311 315 315 318 324 322 307 279 266 268 248 220 227 230 219 211 206 205 211 219 235 247 247
245 257 249 229 219 217 220 233 247 254 270 295 306 307 301 295 296 301 300 295 295 301 301 300 299 301 306 309 311 320 328 330 329 328 330 329 323 307 294 301 315 315 309 312 320 312 266 234 223 244 256 246 242 231 209 204 204 207 218 224 240 252 250
256 260 246 227 222 228 239 254 262 263 273 280 278 289 297 292 292 302 303 294 293 299 298 292 290 294 300 304 308 316 324 327 323 325 332 326 301 294 297 307 318 317 308 306 313 303 237 221 218 233 246 245 254 210 176 179 177 171 197 225 234 240 239
257 252 242 232 234 242 249 258 263 260 266 269 270 283 296 291 285 290 295 295 294 296 294 286 282 288 295 298 302 312 322 323 316 321 331 321 292 291 298 305 318 323 316 301 302 301 243 216 213 219 216 204 204 193 162 154 157 162 181 208 232 243 249
254 252 247 241 242 245 248 258 265 259 259 267 276 289 296 292 283 283 289 295 298 295 289 280 278 283 287 290 297 310 319 318 308 315 327 318 289 283 292 306 326 329 321 301 288 292 260 220 211 213 204 186 182 176 160 159 167 175 184 191 208 226 107
251 251 251 246 243 244 249 260 264 258 262 276 291 297 293 286 286 292 298 301 300 293 281 274 279 283 281 286 297 308 314 310 301 308 323 317 282 271 287 311 329 328 320 303 277 277 259 225 213 213 206 190 184 179 173 174 178 182 186 184 187 186 153
250 251 253 251 246 246 252 259 259 258 267 280 292 299 293 286 289 297 300 298 299 293 279 273 279 279 277 286 298 305 308 305 296 303 322 317 280 267 284 311 329 331 324 306 282 276 256 228 216 214 214 208 197 183 176 177 178 180 183 179 177 173 159
250 253 256 255 250 249 253 258 261 268 276 284 292 296 294 291 292 296 298 295 294 291 282 276 275 272 274 289 300 304 305 300 292 299 321 314 273 262 280 306 326 334 332 318 297 285 262 231 216 213 220 219 201 177 172 173 170 172 175 169 163 154 145
249 252 253 251 249 250 252 253 262 275 282 286 291 293 291 291 292 296 300 299 294 290 283 274 267 264 274 291 300 302 302 297 286 291 315 305 273 272 288 304 317 325 330 326 308 294 277 238 218 214 218 209 184 166 167 168 165 168 164 155 148 139 130
247 246 246 247 248 249 248 248 260 280 285 281 284 286 287 291 293 297 301 302 300 296 283 267 256 256 272 287 291 288 288 291 286 283 291 290 288 294 298 301 307 311 317 321 304 292 292 248 218 207 200 187 168 160 164 165 162 163 155 143 137 125 114
245 242 240 242 244 245 245 248 260 277 278 272 274 278 283 290 294 298 300 302 304 298 275 252 243 250 266 275 278 279 285 296 304 305 301 296 296 296 291 291 296 297 301 305 288 280 293 246 210 195 179 170 162 158 163 163 158 156 149 138 129 117 109
Height
839 838 836 835 834 833 832 831 830 829 828 827 826 826 824 824 823 822 822 821 820 819 818 818 817 816 815 814 813 812 811 810 810 809 809 809 809 809 809 810 811 811 812 812 813 813 814 813 811 811 811 812 812 813 813 813 814 814 815 815 816 817 818
838 837 836 835 834 833 832 831 830 829 828 827 826 826 825 824 823 822 822 821 820 820 819 818 817 816 815 814 813 812 811 810 810 809 809 809 809 809 809 809 810 810 810 811 812 812 813 814 813 811 810 810 810 810 810 811 812 813 813 814 814 815 816
838 837 836 836 834 833 832 830 830 829 828 828 827 826 825 824 823 822 822 821 820 819 819 818 817 816 815 814 813 812 811 810 810 809 809 809 808 808 808 809 808 809 809 809 810 811 811 812 812 810 809 810 809 808 808 810 811 811 811 812 812 813 813
837 837 836 835 834 833 832 830 829 829 829 828 827 826 825 824 823 823 822 821 820 819 818 817 816 815 814 814 813 812 811 810 809 809 808 808 807 807 807 807 807 807 808 808 808 809 809 809 810 810 809 809 809 808 807 808 809 809 809 810 810 810 811
837 836 836 835 834 833 832 830 829 829 828 828 827 826 825 824 823 823 822 821 820 819 818 817 816 815 814 813 812 811 811 810 809 809 808 808 807 806 806 806 806 806 806 806 806 807 807 808 808 808 808 809 809 807 806 807 806 806 806 807 807 808 808
836 836 835 835 834 833 831 830 829 828 828 827 826 825 825 824 824 823 822 821 820 819 818 817 816 815 814 813 812 811 811 810 809 808 808 807 807 806 805 804 804 804 804 804 804 805 806 806 806 807 807 808 808 806 806 805 805 804 804 804 804 804 805
835 835 835 834 833 832 831 830 829 828 827 826 825 825 824 824 824 823 822 821 821 820 818 817 816 815 814 813 812 811 810 809 809 808 807 806 806 805 804 803 802 802 801 801 802 803 803 804 804 805 806 806 806 806 806 805 804 803 801 801 801 801 802
834 834 834 833 832 831 830 829 828 827 827 826 825 824 824 824 823 823 822 821 820 820 818 817 816 814 814 813 812 811 810 809 808 807 806 805 804 804 803 802 801 800 799 799 800 800 801 802 802 803 804 805 805 805 804 803 802 801 799 799 799 799 799
833 833 833 833 832 831 830 829 828 827 826 825 825 824 824 823 822 822 821 821 820 819 818 817 816 814 814 813 812 811 809 808 807 806 805 804 803 803 802 801 800 798 798 798 798 798 798 799 800 801 802 802 803 803 803 802 800 798 797 797 797 797 797
832 832 832 832 831 830 829 828 827 827 826 825 824 824 823 822 822 821 821 820 819 818 817 816 815 814 813 812 811 810 809 808 807 805 804 803 802 801 801 800 799 797 796 796 796 796 796 797 798 799 799 800 801 801 801 801 799 796 795 795 795 795 794
830 831 831 831 830 830 829 828 827 826 826 825 824 823 823 822 821 821 820 819 818 817 816 815 814 813 812 811 810 809 808 807 806 805 803 802 801 800 800 799 798 796 795 795 795 795 795 795 796 796 797 797 798 798 798 798 797 794 793 794 793 793 792
829 830 830 830 830 829 828 827 826 826 825 825 824 823 822 821 821 820 820 819 818 817 816 815 813 812 811 810 809 808 808 806 805 804 803 802 800 799 799 798 797 796 795 794 793 793 793 793 794 794 794 795 795 795 795 795 794 792 792 792 791 791 791
828 829 829 829 829 828 828 827 826 825 824 824 824 822 822 821 821 820 819 818 817 816 815 814 813 812 810 809 808 807 806 805 804 803 802 801 799 798 798 797 796 795 794 793 792 792 792 792 792 792 792 792 792 793 793 793 792 790 790 791 790 790 789
826 827 827 828 828 827 827 826 825 825 824 823 823 822 822 821 820 820 819 818 817 816 815 814 813 811 810 809 807 806 805 804 803 801 800 799 798 797 796 795 794 793 793 792 791 790 790 790 790 790 790 790 790 790 790 790 789 788 788 789 789 789 789
825 826 826 826 826 826 826 825 825 824 824 823 823 822 821 821 820 820 819 818 817 816 815 814 812 811 810 808 807 806 804 803 801 800 798 797 796 795 794 793 792 792 791 790 789 789 788 788 788 788 788 788 787 787 788 788 788 787 786 787 788 788 788
823 824 824 825 825 825 825 824 824 824 823 822 822 821 821 820 820 819 819 818 817 816 815 813 812 811 809 808 807 805 804 802 801 799 798 796 795 794 793 791 791 790 789 788 788 787 787 786 786 786 785 786 785 785 785 786 785 785 785 785 786 786 786
822 822 822 823 823 823 823 823 822 823 822 822 821 821 820 820 819 819 818 817 816 815 814 813 812 810 809 807 806 805 803 802 800 799 797 795 794 793 792 790 789 789 788 787 786 786 785 785 784 784 783 783 783 783 783 783 784 784 784 783 783 784 784
820 820 821 821 821 822 822 821 821 821 821 821 820 820 820 819 819 818 817 816 815 814 813 812 811 810 808 807 806 804 803 801 799 797 795 794 793 792 791 789 789 788 787 786 785 784 784 783 783 782 782 781 781 781 781 781 781 782 782 781 781 782 782
819 819 819 819 820 821 820 820 820 820 820 820 819 819 819 818 818 817 816 815 814 813 812 811 810 809 808 806 805 803 801 799 797 795 794 792 791 790 789 789 788 787 786 785 784 783 782 781 781 781 780 780 779 779 779 779 779 779 780 780 780 780 780
817 817 817 818 819 819 819 819 819 818 819 818 818 818 817 817 817 816 815 814 813 812 811 810 809 808 807 805 804 802 800 798 796 793 792 790 789 789 788 787 786 785 784 783 782 781 780 780 779 778 778 778 777 777 776 776 777 777 777 778 778 777 778
815 815 816 817 817 817 817 817 817 817 817 817 817 817 816 816 815 814 814 813 812 811 810 809 808 807 805 804 802 801 799 796 794 792 790 788 787 787 786 786 785 783 782 782 781 780 779 778 777 777 776 776 775 775 775 775 775 775 775 776 775 775 776
814 814 815 815 816 816 815 816 816 816 816 816 816 815 815 814 814 813 812 812 811 810 809 808 807 805 804 803 801 799 797 795 793 790 788 786 786 785 785 784 783 782 781 780 779 778 777 777 776 775 775 774 774 773 773 773 773 773 774 774 773 773 774
813 813 813 814 814 814 814 815 815 815 815 815 815 814 813 813 812 811 811 810 809 808 807 807 805 804 803 802 800 798 796 794 792 790 788 786 785 784 784 783 782 780 780 779 778 777 776 776 775 774 774 773 772 771 771 772 772 772 772 772 772 772 772
812 812 812 812 812 812 813 813 814 814 814 814 814 813 812 811 811 810 809 808 807 807 806 805 804 803 802 801 799 797 795 793 791 789 787 786 785 784 783 782 781 780 779 778 777 776 775 775 774 774 773 773 771 770 770 770 771 771 771 771 771 771 771
810 811 811 811 811 811 811 812 812 813 812 812 812 811 811 810 809 808 807 807 806 805 805 804 803 802 801 799 798 796 794 792 790 788 787 785 784 783 782 782 780 779 779 778 777 775 774 774 774 773 773 772 771 770 770 770 770 770 770 770 770 770 770
809 810 809 809 809 809 810 810 811 811 811 811 810 810 809 808 808 807 806 805 805 804 803 803 802 801 799 798 797 795 793 791 789 788 786 785 784 783 782 781 780 779 779 778 776 775 774 774 773 772 772 771 770 770 770 770 770 770 770 770 770 770 770
809 809 808 808 808 808 808 809 809 809 809 809 808 808 808 807 806 805 804 804 803 802 802 801 800 799 798 797 795 794 792 790 789 787 786 784 783 783 782 781 780 779 779 778 777 775 773 772 772 772 771 770 770 770 769 770 770 770 770 770 770 769 769
808 807 807 807 807 807 807 807 807 807 807 807 807 806 806 805 805 804 803 802 802 801 800 799 799 798 797 795 794 793 791 789 788 787 786 784 783 783 782 782 780 779 778 778 777 775 773 772 771 771 771 771 770 770 769 769 770 770 770 770 769 769 769
806 806 806 805 805 806 806 806 806 805 805 805 805 805 804 804 803 802 801 801 800 799 799 798 797 796 795 794 793 792 790 789 787 786 785 784 783 783 782 781 780 779 778 777 776 775 774 772 771 772 772 772 771 770 770 770 770 770 770 770 770 769 769
804 804 804 804 804 804 804 804 804 804 804 803 803 803 802 802 801 801 800 799 799 798 797 796 796 795 794 793 792 791 789 788 787 786 784 783 782 782 781 781 780 779 777 776 775 774 774 773 772 772 773 772 772 771 770 770 771 771 771 771 771 770 770
803 803 802 802 802 802 802 802 802 802 802 801 801 801 801 800 800 799 798 798 797 796 795 795 794 793 792 792 791 790 788 787 786 785 784 782 782 781 780 780 779 778 777 776 775 774 773 773 772 772 772 772 772 771 770 771 771 771 771 771 771 771 771
801 801 801 801 801 800 800 800 800 800 800 800 799 799 799 798 798 797 797 796 795 795 794 793 793 792 791 791 790 788 787 786 785 784 783 782 781 780 780 779 778 777 776 775 774 773 772 772 772 772 772 772 771 771 770 771 771 771 771 771 771 771 771
799 799 799 799 799 799 799 799 799 799 799 798 798 798 797 797 796 796 795 794 793 793 792 792 791 791 790 790 789 787 786 785 784 783 782 781 780 780 779 779 778 776 775 774 773 773 772 772 771 772 772 771 771 771 771 771 771 771 771 771 771 771 771
797 797 797 797 797 797 797 797 797 797 797 797 797 796 796 795 794 794 793 793 792 791 791 790 790 789 789 788 787 786 785 784 783 782 781 780 780 779 779 778 777 776 775 774 773 772 772 771 771 771 771 771 771 771 771 771 771 771 772 771 771 771 771
794 795 795 795 795 796 796 796 796 796 796 796 795 795 794 793 793 792 791 791 790 790 789 788 788 788 788 787 786 785 784 784 783 782 781 780 779 779 779 778 777 776 775 773 773 772 771 770 770 770 771 771 772 771 771 772 772 772 772 772 772 772 771
792 792 793 793 793 794 794 794 794 794 794 794 794 793 792 791 791 790 789 789 788 788 787 787 786 787 787 786 785 784 784 783 782 781 780 779 779 779 778 777 776 775 774 773 772 771 770 769 768 769 770 772 772 772 772 772 773 773 773 773 773 772 772
790 790 790 791 791 792 792 792 792 792 792 792 792 791 790 790 789 788 787 787 786 785 785 785 785 786 785 785 784 784 783 783 782 780 779 778 778 777 777 776 776 775 774 773 772 771 770 769 769 769 770 772 773 773 773 774 774 774 774 774 774 773 773